Time,TemperatureF,DewpointF,PressureIn,WindDirection,WindDirectionDegrees,WindSpeedMPH,WindSpeedGustMPH,Humidity,HourlyPrecipIn,Conditions,Clouds,dailyrainin,SolarRadiationWatts/m^2,SoftwareType,DateUTC
2013-02-24 00:09:00,29.0,25.0,30.12,NNW,335,7.0,14.0,85,0.00,,,0.00,0,weatherlink.com 1.10,2013-02-24 07:09:00,
2013-02-24 00:25:00,28.2,24.0,30.13,NW,325,7.0,14.0,85,0.00,,,0.00,0,weatherlink.com 1.10,2013-02-24 07:25:00,
2013-02-24 00:40:00,27.5,24.0,30.14,NNW,331,7.0,11.0,86,0.00,,,0.00,0,weatherlink.com 1.10,2013-02-24 07:40:00,
2013-02-24 01:11:00,26.7,23.0,30.16,WNW,296,9.0,13.0,85,0.00,,,0.00,0,weatherlink.com 1.10,2013-02-24 08:11:00,
2013-02-24 01:26:00,26.7,23.0,30.17,NNW,346,10.0,16.0,86,0.00,,,0.00,0,weatherlink.com 1.10,2013-02-24 08:26:00,
2013-02-24 02:11:00,27.6,25.0,30.19,NW,318,7.0,12.0,88,0.00,,,0.00,0,weatherlink.com 1.10,2013-02-24 09:11:00,
2013-02-24 02:41:00,28.8,26.0,30.20,NW,325,7.0,15.0,89,0.00,,,0.00,0,weatherlink.com 1.10,2013-02-24 09:41:00,
2013-02-24 02:56:00,28.0,25.0,30.20,WNW,297,5.0,9.0,89,0.00,,,0.00,0,weatherlink.com 1.10,2013-02-24 09:56:00,
2013-02-24 03:10:00,27.5,25.0,30.21,NW,313,5.0,10.0,90,0.00,,,0.00,0,weatherlink.com 1.10,2013-02-24 10:10:00,
2013-02-24 03:25:00,27.3,25.0,30.21,WNW,295,5.0,8.0,90,0.00,,,0.00,0,weatherlink.com 1.10,2013-02-24 10:25:00,
2013-02-24 03:41:00,27.4,25.0,30.22,NW,306,8.0,13.0,90,0.00,,,0.00,0,weatherlink.com 1.10,2013-02-24 10:41:00,
2013-02-24 03:56:00,27.2,24.0,30.22,NNW,327,8.0,10.0,89,0.00,,,0.00,0,weatherlink.com 1.10,2013-02-24 10:56:00,
2013-02-24 04:11:00,27.3,24.0,30.23,NW,309,8.0,13.0,88,0.00,,,0.00,0,weatherlink.com 1.10,2013-02-24 11:11:00,
2013-02-24 04:26:00,27.1,24.0,30.24,NW,324,7.0,11.0,88,0.00,,,0.00,0,weatherlink.com 1.10,2013-02-24 11:26:00,
2013-02-24 04:41:00,26.5,23.0,30.25,West,271,5.0,8.0,88,0.00,,,0.00,0,weatherlink.com 1.10,2013-02-24 11:41:00,
2013-02-24 04:56:00,25.9,23.0,30.26,NNW,331,4.0,6.0,88,0.00,,,0.00,0,weatherlink.com 1.10,2013-02-24 11:56:00,
2013-02-24 05:11:00,25.3,22.0,30.26,NW,319,4.0,7.0,88,0.00,,,0.00,0,weatherlink.com 1.10,2013-02-24 12:11:00,
2013-02-24 05:26:00,25.2,22.0,30.26,NW,309,3.0,7.0,88,0.00,,,0.00,0,weatherlink.com 1.10,2013-02-24 12:26:00,
2013-02-24 05:41:00,25.0,22.0,30.27,NW,315,8.0,11.0,89,0.00,,,0.00,0,weatherlink.com 1.10,2013-02-24 12:41:00,
2013-02-24 05:57:00,24.3,22.0,30.28,NNW,331,5.0,8.0,89,0.00,,,0.00,0,weatherlink.com 1.10,2013-02-24 12:57:00,
2013-02-24 06:11:00,23.6,21.0,30.28,WNW,294,6.0,9.0,90,0.00,,,0.00,0,weatherlink.com 1.10,2013-02-24 13:11:00,
2013-02-24 06:26:00,23.2,21.0,30.29,NW,318,4.0,8.0,90,0.00,,,0.00,0,weatherlink.com 1.10,2013-02-24 13:26:00,
2013-02-24 06:42:00,-999.0,-99.9,30.30,North,-999,-999.0,-999.0,-999,0.00,,,0.00,,weatherlink.com 1.10,2013-02-24 13:42:00,
2013-02-24 06:56:00,-999.0,-99.9,30.30,North,-999,-999.0,-999.0,-999,0.00,,,0.00,,weatherlink.com 1.10,2013-02-24 13:56:00,
2013-02-24 07:11:00,-999.0,-99.9,30.30,North,-999,-999.0,-999.0,-999,0.00,,,0.00,,weatherlink.com 1.10,2013-02-24 14:11:00,
2013-02-24 07:27:00,-999.0,-99.9,30.31,North,-999,-999.0,-999.0,-999,0.00,,,0.00,,weatherlink.com 1.10,2013-02-24 14:27:00,
2013-02-24 07:42:00,21.4,19.0,30.32,NW,323,4.0,6.0,90,0.00,,,0.00,49,weatherlink.com 1.10,2013-02-24 14:42:00,
2013-02-24 07:57:00,21.2,19.0,30.32,WNW,302,2.0,5.0,90,0.00,,,0.00,74,weatherlink.com 1.10,2013-02-24 14:57:00,
2013-02-24 08:12:00,22.1,20.0,30.33,WNW,300,2.0,6.0,90,0.00,,,0.00,171,weatherlink.com 1.10,2013-02-24 15:12:00,
2013-02-24 08:27:00,23.5,21.0,30.33,NW,312,5.0,9.0,90,0.00,,,0.00,218,weatherlink.com 1.10,2013-02-24 15:27:00,
2013-02-24 08:58:00,25.8,22.0,30.33,West,280,7.0,10.0,86,0.00,,,0.00,272,weatherlink.com 1.10,2013-02-24 15:58:00,
2013-02-24 09:12:00,26.5,23.0,30.34,WNW,300,6.0,8.0,87,0.00,,,0.00,309,weatherlink.com 1.10,2013-02-24 16:12:00,
2013-02-24 09:28:00,27.4,23.0,30.34,NNW,339,5.0,12.0,84,0.00,,,0.00,346,weatherlink.com 1.10,2013-02-24 16:28:00,
2013-02-24 09:42:00,27.9,23.0,30.34,NW,322,8.0,10.0,80,0.00,,,0.00,383,weatherlink.com 1.10,2013-02-24 16:42:00,
2013-02-24 09:58:00,28.4,23.0,30.34,NW,313,3.0,9.0,80,0.00,,,0.00,415,weatherlink.com 1.10,2013-02-24 16:58:00,
2013-02-24 10:13:00,29.8,24.0,30.34,NW,326,3.0,8.0,79,0.00,,,0.00,446,weatherlink.com 1.10,2013-02-24 17:13:00,
2013-02-24 10:28:00,30.6,24.0,30.34,NW,305,5.0,9.0,77,0.00,,,0.00,475,weatherlink.com 1.10,2013-02-24 17:28:00,
2013-02-24 10:43:00,31.4,25.0,30.34,West,272,6.0,9.0,76,0.00,,,0.00,497,weatherlink.com 1.10,2013-02-24 17:43:00,
2013-02-24 10:58:00,32.2,25.0,30.34,NW,323,3.0,10.0,75,0.00,,,0.00,519,weatherlink.com 1.10,2013-02-24 17:58:00,
2013-02-24 11:13:00,32.9,25.0,30.34,WNW,302,10.0,12.0,73,0.00,,,0.00,540,weatherlink.com 1.10,2013-02-24 18:13:00,
2013-02-24 11:28:00,33.9,25.0,30.34,West,277,5.0,10.0,70,0.00,,,0.00,554,weatherlink.com 1.10,2013-02-24 18:28:00,
2013-02-24 11:44:00,35.3,26.0,30.33,West,265,7.0,9.0,68,0.00,,,0.00,564,weatherlink.com 1.10,2013-02-24 18:44:00,
2013-02-24 11:59:00,35.8,25.0,30.32,West,279,5.0,10.0,66,0.00,,,0.00,573,weatherlink.com 1.10,2013-02-24 18:59:00,
2013-02-24 12:13:00,36.0,26.0,30.32,WNW,286,4.0,9.0,66,0.00,,,0.00,578,weatherlink.com 1.10,2013-02-24 19:13:00,
2013-02-24 12:29:00,36.7,26.0,30.31,WNW,289,5.0,10.0,66,0.00,,,0.00,578,weatherlink.com 1.10,2013-02-24 19:29:00,
2013-02-24 12:43:00,37.7,27.0,30.31,WNW,294,7.0,7.0,66,0.00,,,0.00,577,weatherlink.com 1.10,2013-02-24 19:43:00,
2013-02-24 12:59:00,37.4,25.0,30.31,WNW,302,6.0,11.0,61,0.00,,,0.00,575,weatherlink.com 1.10,2013-02-24 19:59:00,
2013-02-24 13:14:00,37.8,27.0,30.30,NW,304,6.0,8.0,64,0.00,,,0.00,570,weatherlink.com 1.10,2013-02-24 20:14:00,
2013-02-24 13:44:00,39.5,27.0,30.29,West,263,2.0,7.0,62,0.00,,,0.00,540,weatherlink.com 1.10,2013-02-24 20:44:00,
2013-02-24 13:59:00,40.4,28.0,30.29,NW,312,3.0,6.0,61,0.00,,,0.00,513,weatherlink.com 1.10,2013-02-24 20:59:00,
2013-02-24 14:13:00,40.9,28.0,30.28,NW,310,5.0,7.0,60,0.00,,,0.00,503,weatherlink.com 1.10,2013-02-24 21:13:00,
2013-02-24 14:28:00,40.8,27.0,30.28,NW,320,3.0,7.0,59,0.00,,,0.00,468,weatherlink.com 1.10,2013-02-24 21:28:00,
2013-02-24 14:44:00,41.4,25.0,30.27,WNW,300,4.0,6.0,53,0.00,,,0.00,441,weatherlink.com 1.10,2013-02-24 21:44:00,
2013-02-24 14:59:00,42.6,24.0,30.27,NW,309,2.0,5.0,48,0.00,,,0.00,408,weatherlink.com 1.10,2013-02-24 21:59:00,
2013-02-24 15:15:00,43.2,25.0,30.27,West,278,3.0,4.0,49,0.00,,,0.00,376,weatherlink.com 1.10,2013-02-24 22:15:00,
2013-02-24 15:29:00,43.7,26.0,30.26,SW,234,2.0,7.0,50,0.00,,,0.00,301,weatherlink.com 1.10,2013-02-24 22:29:00,
2013-02-24 15:44:00,44.0,26.0,30.26,SW,235,2.0,5.0,50,0.00,,,0.00,306,weatherlink.com 1.10,2013-02-24 22:44:00,
2013-02-24 16:00:00,44.1,27.0,30.25,SW,218,1.0,4.0,51,0.00,,,0.00,229,weatherlink.com 1.10,2013-02-24 23:00:00,
2013-02-24 16:15:00,44.1,25.0,30.25,West,260,3.0,5.0,48,0.00,,,0.00,197,weatherlink.com 1.10,2013-02-24 23:15:00,
2013-02-24 16:29:00,43.7,26.0,30.24,WSW,246,3.0,5.0,50,0.00,,,0.00,148,weatherlink.com 1.10,2013-02-24 23:29:00,
2013-02-24 16:45:00,42.4,27.0,30.25,SW,214,3.0,5.0,55,0.00,,,0.00,97,weatherlink.com 1.10,2013-02-24 23:45:00,
2013-02-24 16:59:00,41.3,28.0,30.24,SSW,207,1.0,4.0,59,0.00,,,0.00,62,weatherlink.com 1.10,2013-02-24 23:59:00,
2013-02-24 17:30:00,38.2,26.0,30.23,South,190,0.0,3.0,63,0.00,,,0.00,12,weatherlink.com 1.10,2013-02-25 00:30:00,
2013-02-24 17:45:00,36.4,26.0,30.23,South,184,0.0,2.0,66,0.00,,,0.00,0,weatherlink.com 1.10,2013-02-25 00:45:00,
2013-02-24 18:00:00,34.9,26.0,30.22,South,184,2.0,2.0,69,0.00,,,0.00,0,weatherlink.com 1.10,2013-02-25 01:00:00,
2013-02-24 18:15:00,33.5,25.0,30.22,South,184,1.0,2.0,72,0.00,,,0.00,0,weatherlink.com 1.10,2013-02-25 01:15:00,
2013-02-24 19:30:00,29.8,24.0,30.22,South,184,0.0,2.0,79,0.00,,,0.00,0,weatherlink.com 1.10,2013-02-25 02:30:00,
2013-02-24 19:45:00,29.4,24.0,30.22,ESE,109,2.0,4.0,80,0.00,,,0.00,0,weatherlink.com 1.10,2013-02-25 02:45:00,
2013-02-24 20:00:00,29.6,24.0,30.22,ESE,109,1.0,2.0,80,0.00,,,0.00,0,weatherlink.com 1.10,2013-02-25 03:00:00,
2013-02-24 20:14:00,28.8,24.0,30.22,ESE,109,0.0,2.0,81,0.00,,,0.00,0,weatherlink.com 1.10,2013-02-25 03:14:00,
2013-02-24 20:30:00,28.7,24.0,30.21,ESE,109,0.0,0.0,81,0.00,,,0.00,0,weatherlink.com 1.10,2013-02-25 03:30:00,
2013-02-24 20:45:00,27.7,23.0,30.21,NNW,334,0.0,5.0,82,0.00,,,0.00,0,weatherlink.com 1.10,2013-02-25 03:45:00,
2013-02-24 21:00:00,28.5,23.0,30.21,NNW,334,0.0,2.0,80,0.00,,,0.00,0,weatherlink.com 1.10,2013-02-25 04:00:00,
2013-02-24 21:15:00,29.7,24.0,30.20,WNW,286,0.0,2.0,78,0.00,,,0.00,0,weatherlink.com 1.10,2013-02-25 04:15:00,
2013-02-24 21:29:00,31.9,25.0,30.20,WSW,241,2.0,6.0,76,0.00,,,0.00,0,weatherlink.com 1.10,2013-02-25 04:29:00,
2013-02-24 21:44:00,33.4,26.0,30.20,WSW,248,9.0,9.0,74,0.00,,,0.00,0,weatherlink.com 1.10,2013-02-25 04:44:00,
2013-02-24 21:59:00,33.5,26.0,30.19,WSW,239,9.0,10.0,74,0.00,,,0.00,0,weatherlink.com 1.10,2013-02-25 04:59:00,
2013-02-24 22:15:00,33.5,26.0,30.19,WSW,242,4.0,11.0,75,0.00,,,0.00,0,weatherlink.com 1.10,2013-02-25 05:15:00,
2013-02-24 22:30:00,32.9,26.0,30.18,SW,230,3.0,8.0,76,0.00,,,0.00,0,weatherlink.com 1.10,2013-02-25 05:30:00,
2013-02-24 22:46:00,32.9,26.0,30.18,WSW,246,4.0,8.0,76,0.00,,,0.00,0,weatherlink.com 1.10,2013-02-25 05:46:00,
2013-02-24 23:00:00,32.6,26.0,30.18,WSW,244,7.0,7.0,77,0.00,,,0.00,0,weatherlink.com 1.10,2013-02-25 06:00:00,
2013-02-24 23:15:00,32.6,26.0,30.17,WSW,253,5.0,10.0,76,0.00,,,0.00,0,weatherlink.com 1.10,2013-02-25 06:15:00,
2013-02-24 23:30:00,32.6,26.0,30.17,WSW,244,7.0,12.0,75,0.00,,,0.00,0,weatherlink.com 1.10,2013-02-25 06:30:00,
2013-02-24 23:45:00,32.0,25.0,30.17,WSW,248,5.0,7.0,76,0.00,,,0.00,0,weatherlink.com 1.10,2013-02-25 06:45:00,